Back to catalog

SCOUT G-1 DEB

LostPO
NORAD 29210·DEBRIS·🇺🇸 United States

Launched Sep 16, 1987 from Vandenberg Space Force Base

Loading…

Next Passes (next 24 hours)

TLE

StaleSource: Space-Track

Epoch: Jun 10, 2006, 08:21 UTC

1 29210U 87080N   06161.34810646  .00000397  00000-0  41911-3 0  9991
2 29210  90.2391 197.6392 0141328 128.6900 232.7621 13.68756194158380

Track SCOUT G-1 DEB in real time with AllMySat

Download on the App Store